Regional Weather Roundup
Issued by NWS

Home | Current Version | Previous Version | Text Only | Print | Product List | Glossary On
Versions: 1 2 3 4 5 6 7 8 9 10 11 12 13 14 15 16 17 18 19 20 21 22 23 24 25 26 27 28 29 30 31 32 33 34 35 36 37 38 39 40 41 42 43 44 45 46 47 48 49 50
000
ASHW40 PHFO 152232
RWRHI

WEATHER ROUNDUP FOR HAWAII
NATIONAL WEATHER SERVICE HONOLULU HI
1200 PM HST FRI DEC 15 2017

THIS IS AN AUTOMATED REPORT THAT HAS NOT BEEN QUALITY CONTROLLED.

NOTE..."FAIR" INDICATES FEW OR NO CLOUDS BELOW 12,000 FEET WITH NO
SIGNIFICANT WEATHER AND/OR OBSTRUCTIONS TO VISIBILITY.

* - THESE SITES REPORT LIMITED FIELDS
# - BUOY DATA PROVIDED BY PACIFIC ISLANDS OCEAN OBSERVING SYSTEM.

HIZ001>004-152300-
KAUAI-NIIHAU-

CITY           SKY/WX    TMP DP  RH WIND       PRES   REMARKS
LIHUE APT      MOSUNNY   71  59  65 N30       30.03F
PORT ALLEN*      N/A     77 N/A N/A NE15G24     N/A
POIPU*           N/A     79 N/A N/A N9G23       N/A
PRINCEVILLE*   NOT AVBL
KOKOLE POINT*  NOT AVBL
MOLOAA DAIRY*    N/A     75  59  57 N3G15       N/A
WAIMEA HTS*    NOT AVBL
PUU OPAE*      NOT AVBL
PUU LUA*       NOT AVBL
MAKAHA RIDGE*    N/A     66  54  63 N6G20       N/A
$$

HIZ005>011-152300-
OAHU-

CITY           SKY/WX    TMP DP  RH WIND       PRES   REMARKS
HONOLULU       MOSUNNY   77  56  48 N15G24    29.97F
KALAELOA       PTSUNNY   75  58  55 NE10G21   29.99F
KANEOHE MCB    PTSUNNY   76  60  57 NE15G23   29.95F
WHEELER FIELD  DRIZZLE   72  57  60 N15       29.99F
BELLOWS*         N/A    N/A N/A N/A N14G26      N/A
KAHUKU*          N/A    N/A N/A N/A N7G15       N/A
WHEELER*       NOT AVBL
WAIANAE HARBOR NOT AVBL
DILLINGHAM*    NOT AVBL
KAHUKU TRN*      N/A     73  57  56 SW10G23     N/A
KAWAILOA*        N/A     66  57  72 N9G23       N/A
KII*             N/A     75  59  57 N15G22      N/A
MAKUA RANGE*     N/A     72  55  56 NW12G22     N/A
OAHU FOREST NW NOT AVBL
SCHOFIELD BRK*   N/A     61  50  67 MISG        N/A
SCHOFIELD S*   NOT AVBL
WAIANAE VLY*   NOT AVBL
KUAOKALA*      NOT AVBL
HONOULIUULI*   NOT AVBL
MOKUOLOE IS*   NOT AVBL
PALEHUA*       NOT AVBL
WAIAWA PHB*    NOT AVBL
$$

HIZ012>013-152300-
MOLOKAI-

CITY           SKY/WX    TMP DP  RH WIND       PRES   REMARKS
MOLOKAI AIRPT  LGT RAIN  72  59  63 N13       29.95F
KALAUPAPA      NOT AVBL
MAKAPULAPAI*     N/A     75  61  60 N13G18      N/A
MOLOKAI 1*     NOT AVBL
PUU ALII*        N/A     50  50 100 NE3G14      N/A
$$

HIZ016-152300-
KAHOOLAWE-

CITY           SKY/WX    TMP DP  RH WIND       PRES   REMARKS
KAHOOLAWE*     NOT AVBL
HAKIOAWA*        N/A     71  62  71 MISG      30.32F
HONOKANAIA*    NOT AVBL
KANELOA*         N/A     73  54  49 VRB18G25  30.01F
KEALIALALO*    NOT AVBL
LUA MAKIKA*    NOT AVBL
$$

HIZ014>015-152300-
LANAI-

CITY           SKY/WX    TMP DP  RH WIND       PRES   REMARKS
LANAI CITY     FAIR      70  56  61 NE16G29   29.97F
LANAI 1*       NOT AVBL
$$

HIZ017>028-152300-
MAUI-

CITY           SKY/WX    TMP DP  RH WIND       PRES   REMARKS
KAHULUI        PTSUNNY   75  62  64 NE16      29.94F
KAPALUA-W MAUI LGT RAIN  66  61  82 NE14      29.95
HANA AIRPORT   LGT RAIN  73  63  68 W6        29.95F
HANA*            N/A     72 N/A N/A NW7G16      N/A
HALEAKALA SUMM   N/A     32  32 100 NE29        N/A  WCI  18
MAALAEA BAY*     N/A     73 N/A N/A N14G24      N/A
HALEAKALA*     NOT AVBL
KAUPO GAP*     NOT AVBL
KULA 1*          N/A     55  32  42 N5G15       N/A
$$

HIZ023>026-152300-
BIG ISLAND OF HAWAII COAST AND LOWER SLOPES-

CITY           SKY/WX    TMP DP  RH WIND       PRES   REMARKS
KAILUA KONA    SUNNY     80  52  37 N22       29.89F
HILO           SUNNY     75  56  51 N15       29.91F
HONOKAA*         N/A     72 N/A N/A VRB1        N/A
KAWAIHAE MWT*    N/A     79 N/A N/A N8G22       N/A
KAWAIHAE*        N/A     79 N/A N/A N12       29.89F
SOUTH POINT*     N/A     72 N/A N/A N5          N/A
UPOLU AIRPORT* NOT AVBL
KAMUELA*       CLEAR     66  52  59 NE18      29.97F
HAKALAU*         N/A     50  42  75 N6G12       N/A
KALOKO-HONOKO*   N/A     81  52  36 N12G26    29.86F
PALI 2*          N/A     72  45  37 N9G20       N/A
KEALAKOMO*       N/A     81  50  34 N16G28      N/A
KAUPULEHU*     NOT AVBL
KAPAPALA*        N/A     74  56  52 S5          N/A
LOWER KAHUKU*    N/A     64  55  72 S2G12       N/A
PUHE CS*         N/A     79  43  27 N5G12       N/A
PUHO CS*         N/A     80  54  39 W3          N/A
PTA KEAMUKU*     N/A     63  48  59 NE18G29     N/A
WAIKOLOA*      NOT AVBL
$$

HIZ027>028-152300-
BIG ISLAND OF HAWAII INTERIOR AND SUMMMITS-

CITY           SKY/WX    TMP DP  RH WIND       PRES   REMARKS
BRADSHAW FIELD SUNNY     56  37  48 SW7       30.13F
MK VISITOR CEN   N/A     43  30  61 SW9         N/A
MAUNA KEA*       N/A     32 -18  10 W28G40      N/A  WCI  18
MAUNA LOA*       N/A     41  -8  12 MISG        N/A
MAUNA LOA 1*   NOT AVBL
PTA KIPUKA*      N/A    N/A N/A N/A SE8G14      N/A
PTA RANGE 17*    N/A    N/A N/A N/A E9G17       N/A
PTA WEST*        N/A     66  52  59 NW13G21     N/A
NENE CABIN*      N/A     46  37  71 SE3         N/A
AHUMOA*        NOT AVBL
PTA PORTABLE*  NOT AVBL
PUU MALI*        N/A     48 N/A N/A N3G12       N/A
$$

HIC003-152300-
NORTHWEST ISLANDS-

CITY           SKY/WX    TMP DP  RH WIND       PRES   REMARKS
MIDWAY ISLAND  SUNNY     75  68  78 S10       30.19R
MIDWAY NOS*      N/A     73 N/A N/A MISG      30.17R
FRENCH FRIGATE NOT AVBL
$$

PHZ110>124-180-152300-
BUOY REPORTS

STATION/POSITION TIME  TEMP    WIND        PRES    WAVE   SWELL
                       AIR SEA DIR/SP/G            HT/PER HT/DIR
                 (UTC) (F)     (DEG/KT/KT) (MB)    (FT/S) (FT/D)
BUOY 51001       2210   71 75   40/ 19/ 23 1019.8
BUOY 51101       2150   71 74   40/ 21/ 25 1020.2F  10/ 8   7/340
BUOY 51100       NOT AVBL
BUOY 51002       2210   75 78   10/ 16/ 21 1012.7
BUOY 51003       2150   73 77   40/ 21/ 25 1015.3F  11/ 9   5/340
BUOY 51004       2210   74 79  340/ 10/ 14 1011.7
WAIMEA BAY#      2102      74                N/A    10/ 8   5/320
MOKAPU POINT#    2134      76                N/A     9/ 8   3/360
LANAI#           NOT AVBL
BARBERS PT 2#    NOT AVBL
PAUWELA#         2130      78                N/A    12/10   7/320
HILO#            2157      77                N/A    10/13   7/350
KANEOHE BAY#     NOT AVBL
KANEOHE BAY 2#   NOT AVBL
HANALEI#         2152      76                N/A    10/ 8   5/330
KAHULUI HARBOR   2200   70 74  360/ 18/ 24 1013.7
HONOLULU HARBOR  2200   73 76   10/  5/ 12 1015.4
PEARL HARBOR#    2200      78                N/A     1/ 9
KILO NALU        NOT AVBL
HILO HARBOR      2200   72 76   10/ 15/ 17 1012.5
MOKUOLOE         2136   72 72   20/ 17/ 21 1015.2F
NAWILIWILI       2200   72      20/ 17/ 22 1016.5
WHOTS BUOY       NOT AVBL
BUOY 51028       NOT AVBL
$$

......................KEY........................................
  SKY/WX - SKY CONDITIONS/PRESENT WEATHER
  TMP    - TEMPERATURE IN FAHRENHEIT
  DWPT   - DEWPOINT IN FAHRENHEIT
  RH     - RELATIVE HUMIDITY IN PERCENT
  WIND   - DIRECTION AND SPEED /MPH FOR ISLANDS...KTS FOR BUOYS/
  PRES   - MEAN SEA LEVEL PRESSURE IN INCHES OF HG
  VSB    - VISIBILITY IN MILES
  HX     - HEAT INDEX
  WCI    - WIND CHILL INDEX
  VRB    - VARIABLE WIND DIRECTION
  N/A    - NOT AVAILABLE




USA.gov is the U.S. government's official web portal to all federal, state and local government web resources and services.